Location: Litvinovka
(48.6667°N, 34.3500°E)
Time: 06:49:18
(UTC+00:00)

OBJECT-B - Pass Details

Date: 18 September 2020
Orbit: 421 x 433 km, 97.0° (Epoch: 09 October)

Event Time Altitude Azimuth Distance (km) Brightness Sun altitude
Exits shadow 17:28:13 46° 98° (E) 580 1.0 -16.8°
Maximum altitude 17:28:34 49° 74° (ENE) 558 1.0 -16.9°
Drops below altitude 10° 17:31:44 10° 358° (N) 1,523 3.9 -17.4°
Sets 17:33:47 0° 353° (N) 2,396 5.0 -17.7°
